Location: Cahas Mountain Overlook
(37.0833°N, 80.1000°W)
Time: 17:34:05
(UTC-05:00)

Vanguard 3 - Pass Details

Date: 11 December 2023
Orbit: 508 x 3239 km, 33.4° (Epoch: 23 February)

Event Time Altitude Azimuth Distance (km) Brightness Sun altitude
Rises 21:13:05 0° 255° (WSW) 7,018 12.5 -48.9°
Reaches altitude 10° 21:18:11 10° 254° (WSW) 5,773 11.9 -49.9°
Enters shadow 21:30:18 51° 240° (WSW) 2,780 9.7 -52.3°
